Weather History for Norfolk, VA

Change the Weather History Date:

Sunday, June 16, 2013

  Actual Average Record
Temperature  
Mean Temperature 79 °F 76 °F  
Max Temperature 89 °F 84 °F 96 °F (1981)
Min Temperature 68 °F 67 °F 52 °F (1961)
Degree Days  
Heating Degree Days 0 0  
Month to date heating degree days 0 4  
Since 1 June heating degree days 0 4  
Since 1 July heating degree days 3266 3375  
Cooling Degree Days 14 11  
Month to date cooling degree days 173 140  
Year to date cooling degree days 394 306  
Since 1 June cooling degree days 173 140  
Growing Degree Days 28 (Base 50)    
Moisture  
Dew Point 60 °F    
Average Humidity 61    
Maximum Humidity 81    
Minimum Humidity 40    
Precipitation  
Precipitation 0.00 in 0.15 in 4.39 in (2001)
Month to date precipitation 1.93 2.28  
Year to date precipitation 19.35 19.30  
Snow  
Snow 0.00 in 0.00 in 0.00 in (2002)
Month to date snowfall 0.0 0.0  
Since 1 July snowfall 1.8 5.8  
Snow Depth 0.00 in    
Sea Level Pressure  
Sea Level Pressure 30.01 in    
Wind  
Wind Speed 15 mph (SW)    
Max Wind Speed 24 mph    
Max Gust Speed 33 mph    
Visibility 10 miles    
Events      
T = Trace of Precipitation, MM = Missing Value Source: NWS Daily Summary

Daily Weather History Graph

Daily Weather History Graph

Search for Another Location

Airport:

Trip Planner

Search our weather history database for the weather conditions in past years. The results will help you decide how hot, cold, wet, or windy it might be!

Date:

Astronomy

Jun. 16, 2013 Rise Set
Actual Time 5:44 AM EDT 8:26 PM EDT
Civil Twilight 5:14 AM EDT 8:56 PM EDT
Nautical Twilight 4:35 AM EDT 9:35 PM EDT
Astronomical Twilight 3:52 AM EDT 10:18 PM EDT
Moon 1:08 PM EDT (6/16) 12:39 AM EDT (6/16)
Length of Visible Light 15h 42m
Length of Day
14h 41m
Waxing Crescent, 49% of the Moon is Illuminated
Jun 16
Waxing Crescent
Jun 16
First Quarter
Jun 23
Full
Jun 30
Last Quarter
Jul 8
New

Hourly Weather History & Observations

Time (EDT) Temp. Heat Index Dew Point Humidity Pressure Visibility Wind Dir Wind Speed Gust Speed Precip Events Conditions
12:51 AM 69.1 °F - 62.1 °F 78% 30.05 in 10.0 mi SSW 3.5 mph - N/A   Clear
1:51 AM 68.0 °F - 62.1 °F 81% 30.06 in 10.0 mi SSW 6.9 mph - N/A   Clear
2:51 AM 68.0 °F - 60.1 °F 76% 30.06 in 10.0 mi SW 11.5 mph - N/A   Clear
3:51 AM 69.1 °F - 57.0 °F 65% 30.05 in 10.0 mi SW 11.5 mph - N/A   Clear
4:51 AM 70.0 °F - 55.0 °F 59% 30.06 in 10.0 mi WSW 10.4 mph - N/A   Clear
5:51 AM 69.1 °F - 55.0 °F 61% 30.06 in 10.0 mi SW 11.5 mph - N/A   Clear
6:51 AM 70.0 °F - 54.0 °F 57% 30.07 in 10.0 mi WSW 11.5 mph - N/A   Scattered Clouds
7:51 AM 72.0 °F - 55.0 °F 55% 30.07 in 10.0 mi SW 11.5 mph - N/A   Partly Cloudy
8:51 AM 75.9 °F - 57.0 °F 52% 30.08 in 10.0 mi SW 13.8 mph - N/A   Partly Cloudy
9:51 AM 79.0 °F - 59.0 °F 50% 30.05 in 10.0 mi SW 12.7 mph - N/A   Partly Cloudy
10:51 AM 82.0 °F 82.1 °F 59.0 °F 45% 30.04 in 10.0 mi SW 20.7 mph 29.9 mph N/A   Clear
11:51 AM 84.9 °F 85.0 °F 61.0 °F 44% 30.01 in 10.0 mi SW 20.7 mph 28.8 mph N/A   Clear
12:51 PM 86.0 °F 85.7 °F 60.1 °F 41% 29.99 in 10.0 mi WSW 18.4 mph 25.3 mph N/A   Clear
1:51 PM 87.1 °F 87.0 °F 61.0 °F 41% 29.98 in 10.0 mi SW 19.6 mph 28.8 mph N/A   Clear
2:51 PM 88.0 °F 87.9 °F 61.0 °F 40% 29.97 in 10.0 mi SW 20.7 mph 33.4 mph N/A   Partly Cloudy
3:51 PM 87.1 °F 87.5 °F 62.1 °F 43% 29.96 in 10.0 mi WSW 16.1 mph 27.6 mph N/A   Partly Cloudy
4:51 PM 88.0 °F 88.4 °F 62.1 °F 42% 29.96 in 10.0 mi WSW 16.1 mph 27.6 mph N/A   Scattered Clouds
5:51 PM 87.1 °F 87.5 °F 62.1 °F 43% 29.96 in 10.0 mi SW 17.3 mph 24.2 mph N/A   Clear
6:51 PM 84.9 °F 85.9 °F 63.0 °F 48% 29.95 in 10.0 mi SW 18.4 mph 25.3 mph N/A   Clear
7:51 PM 84.0 °F 84.9 °F 63.0 °F 49% 29.96 in 10.0 mi SW 15.0 mph 21.9 mph N/A   Clear
8:51 PM 81.0 °F 82.5 °F 64.0 °F 56% 29.96 in 10.0 mi SW 13.8 mph - N/A   Clear
9:51 PM 80.1 °F 81.7 °F 64.0 °F 58% 29.97 in 10.0 mi SW 12.7 mph - N/A   Clear
10:51 PM 80.1 °F 81.5 °F 63.0 °F 56% 29.98 in 10.0 mi SW 13.8 mph - N/A   Clear
11:51 PM 78.1 °F - 63.0 °F 60% 29.98 in 10.0 mi SSW 15.0 mph - N/A   Clear